This is the latest recevied weather packets stored in our database for station/object WY1B. If no packets are shown the sender has not sent any weather packets the latest 10 day(s).
| Time | Temp. | Humidity | Pressure | Rain* | Wind** | Luminosity | Snow |
|---|---|---|---|---|---|---|---|
| 1787622120 | 40° C | 19% | 1003.9 hPa | 0 mm | - | 13 W/m² | - |
| 1787621814 | 40.56° C | 19% | 1003.8 hPa | 0 mm | - | 18 W/m² | - |
| 1787621514 | 41.11° C | 18% | 1003.7 hPa | 0 mm | - | 27 W/m² | - |
| 1787621211 | 41.67° C | 18% | 1003.8 hPa | 0 mm | - | 27 W/m² | - |
| 1787620906 | 42.22° C | 18% | 1003.7 hPa | 0 mm | - | 36 W/m² | - |
| 1787620601 | 42.78° C | 18% | 1003.6 hPa | 0 mm | - | 38 W/m² | - |
| 1787620297 | 43.33° C | 18% | 1003.4 hPa | 0 mm | - | 54 W/m² | - |
| 1787619992 | 43.33° C | 18% | 1003.7 hPa | 0 mm | - | 58 W/m² | - |
| 1787619687 | 43.33° C | 18% | 1003.5 hPa | 0 mm | - | 38 W/m² | - |
| 1787619383 | 43.33° C | 18% | 1003.5 hPa | 0 mm | - | 61 W/m² | - |
| 1787619082 | 43.89° C | 18% | 1003.7 hPa | 0 mm | - | 72 W/m² | - |
| 1787618777 | 43.89° C | 18% | 1003.7 hPa | 0 mm | - | 85 W/m² | - |
| 1787618475 | 43.89° C | 18% | 1003.7 hPa | 0 mm | - | 93 W/m² | - |
| 1787618170 | 43.89° C | 18% | 1003.6 hPa | 0 mm | - | 97 W/m² | - |
| 1787617865 | 43.89° C | 19% | 1003.7 hPa | 0 mm | - | 113 W/m² | - |
| 1787617561 | 43.89° C | 19% | 1003.6 hPa | 0 mm | - | 133 W/m² | - |
| 1787617260 | 44.44° C | 19% | 1003.7 hPa | 0 mm | - | 142 W/m² | - |
| 1787616972 | 43.89° C | 19% | 1003.5 hPa | 0 mm | - | 151 W/m² | - |
| 1787616654 | 43.89° C | 19% | 1003.6 hPa | 0 mm | - | 177 W/m² | - |
| 1787616353 | 44.44° C | 19% | 1003.6 hPa | 0 mm | - | 191 W/m² | - |
| 1787616051 | 45° C | 18% | 1003.8 hPa | 0 mm | - | 202 W/m² | - |
| 1787615746 | 45° C | 18% | 1003.8 hPa | 0 mm | - | 216 W/m² | - |
| 1787615446 | 45° C | 18% | 1003.7 hPa | 0 mm | - | 231 W/m² | - |
| 1787615143 | 44.44° C | 19% | 1003.9 hPa | 0 mm | - | 245 W/m² | - |
| 1787614838 | 45° C | 18% | 1003.9 hPa | 0 mm | - | 260 W/m² | - |
* Rain latest hour (hover to see other rain measurements)
** Current wind speed in m/s (hover to see current wind gust speed)